Погода в Некрасовке

Россия / Хабаровский край     48°20′58″N   135°14′09″E
темп.,
°C
ветер,
м/с
пор.,
м/с
влажн.,
%
обл.,
%
осадки,
мм/ч
давл.,
гПа
погр.,
м
4 декабря, сб
сб401:00−22ююз2310062 0.0 101645
04:00−24ююз2210059 0.0 101625
07:00−25юз11998 0.0 101815
10:00−21юз129213 0.0 101973
13:00−16юз228270 0.0 1019398
16:00−17юз248761 0.0 1020240
19:00−23ююз349921 0.0 102276
22:00−23ююз499851 0.0 1023196
5 декабря, вс
вс501:00−22ююз4109634 0.0 1023244
04:00−21ююз5119538 0.0 1023296
07:00−19ююз5129171 0.0 1023319
10:00−17ююз5128729 0.0 1023320
13:00−13ююз511795 0.0 1023450
16:00−10ююз512845 0.0 1021512
19:00−12ююз411876 0.0 1020241
22:00−13ю3891100 0.0 1020136
6 декабря, пн
пн601:00−13ююз278933 0.0 1018114
04:00−12ююз249388 0.0 101861
07:00−7ююз31189100 0.0 1017312
10:00−5ююз41194100 0.2 1017454
13:00−2юз51191100 0.6 1016680
16:00−4зюз411855 0.7 1017734
19:00−12зюз359638 0.0 1020113
22:00−15юз359536 0.0 102488
7 декабря, вт
вт701:00−16юз249740 0.0 102655
04:00−17юз239849 0.0 102752
07:00−15ююз389772 0.0 1027144
10:00−12ююз4109444 0.0 1028223
13:00−8ююз49855 0.0 1028351
16:00−7юз4108954 0.0 1028350
19:00−12юз249750 0.0 103053
22:00−14ююз239877 0.0 103137
8 декабря, ср
ср801:00−14ююз239874 0.0 103146
04:00−15ююз249981 0.0 103255
07:00−15ююз249977 0.0 103358
10:00−12ююз259535 0.0 1034104
13:00−6ююз35835 0.0 1033251
16:00−7ююз259036 0.0 1032144
19:00−12ююз22965 0.0 103221
22:00−13ююз229865 0.0 103130